Torna al catalogo

STARLINK-35396

AttivoComunicazioniVLEO
NORAD 65828·PAYLOAD·🇺🇸 United States

Lanciato Sep 29, 2025 da Vandenberg Space Force Base

Loading…

Prossimi Passaggi (prossime 24 ore)

TLE

AggiornatoSource: CelesTrak SupGP

Epoca: Sep 14, 2026, 20:40 UTC

1 65828C 25221F   26257.86159722  .00020437  00000+0  60400-3 0  2578
2 65828  53.1570 286.1011 0001145  94.4184  15.4200 15.34370524    19

Traccia STARLINK-35396 in tempo reale con AllMySat

Download on the App Store